TimePDT,TemperatureF,Dew PointF,Humidity,Sea Level PressureIn,VisibilityMPH,Wind Direction,Wind SpeedMPH,Gust SpeedMPH,PrecipitationIn,Events,Conditions,WindDirDegrees,DateUTC
12:53 AM,57.0,52.0,83,30.12,10.0,WNW,5.8,-,N/A,,Overcast,290,2013-04-05 07:53:00
1:53 AM,55.9,51.1,84,30.13,10.0,WNW,9.2,-,N/A,,Overcast,290,2013-04-05 08:53:00
2:16 AM,55.4,50.0,82,30.13,10.0,WNW,5.8,-,N/A,,Mostly Cloudy,290,2013-04-05 09:16:00
2:50 AM,55.4,50.0,82,30.13,10.0,West,6.9,-,N/A,,Overcast,270,2013-04-05 09:50:00
2:53 AM,55.9,50.0,80,30.12,10.0,West,6.9,-,N/A,,Overcast,260,2013-04-05 09:53:00
3:42 AM,55.4,50.0,82,30.13,10.0,West,4.6,-,N/A,,Overcast,280,2013-04-05 10:42:00
3:53 AM,55.9,50.0,80,30.13,10.0,West,3.5,-,N/A,,Overcast,270,2013-04-05 10:53:00
4:53 AM,54.0,50.0,86,30.13,10.0,West,4.6,-,N/A,,Mostly Cloudy,260,2013-04-05 11:53:00
5:53 AM,54.0,50.0,86,30.13,10.0,Calm,Calm,-,N/A,,Scattered Clouds,0,2013-04-05 12:53:00
6:53 AM,54.0,50.0,86,30.13,10.0,Calm,Calm,-,N/A,,Overcast,0,2013-04-05 13:53:00
7:53 AM,55.0,50.0,83,30.15,10.0,Calm,Calm,-,N/A,,Mostly Cloudy,0,2013-04-05 14:53:00
8:53 AM,57.0,51.1,81,30.16,10.0,Calm,Calm,-,N/A,,Mostly Cloudy,0,2013-04-05 15:53:00
8:56 AM,57.2,51.8,82,30.16,10.0,Calm,Calm,-,N/A,,Mostly Cloudy,0,2013-04-05 15:56:00
9:53 AM,55.9,53.1,90,30.16,8.0,WSW,5.8,-,0.00,,Mostly Cloudy,250,2013-04-05 16:53:00
10:53 AM,59.0,51.1,75,30.17,10.0,West,6.9,-,N/A,,Mostly Cloudy,260,2013-04-05 17:53:00
11:00 AM,60.8,51.8,72,30.17,10.0,WSW,6.9,-,N/A,,Overcast,250,2013-04-05 18:00:00
11:07 AM,60.8,51.8,72,30.17,10.0,West,5.8,-,N/A,,Overcast,270,2013-04-05 18:07:00
11:50 AM,62.6,50.0,63,30.17,10.0,West,10.4,-,N/A,,Mostly Cloudy,260,2013-04-05 18:50:00
11:53 AM,62.1,51.1,67,30.17,10.0,WSW,10.4,-,N/A,,Mostly Cloudy,250,2013-04-05 18:53:00
12:53 PM,63.0,48.9,60,30.18,10.0,West,13.8,-,N/A,,Mostly Cloudy,260,2013-04-05 19:53:00
1:53 PM,63.0,51.1,65,30.14,10.0,WSW,8.1,-,N/A,,Partly Cloudy,250,2013-04-05 20:53:00
2:47 PM,64.4,50.0,59,30.15,10.0,West,11.5,-,N/A,,Mostly Cloudy,280,2013-04-05 21:47:00
2:53 PM,64.9,48.9,56,30.14,10.0,WNW,10.4,18.4,N/A,,Mostly Cloudy,300,2013-04-05 21:53:00
3:53 PM,64.9,48.9,56,30.13,10.0,WNW,11.5,-,N/A,,Mostly Cloudy,290,2013-04-05 22:53:00
4:53 PM,64.9,50.0,58,30.12,10.0,West,11.5,-,N/A,,Mostly Cloudy,280,2013-04-05 23:53:00
5:00 PM,64.4,48.2,56,30.12,10.0,West,9.2,-,N/A,,Partly Cloudy,280,2013-04-06 00:00:00
5:53 PM,63.0,48.9,60,30.13,10.0,West,10.4,-,N/A,,Scattered Clouds,280,2013-04-06 00:53:00
6:53 PM,59.0,48.9,69,30.14,10.0,West,13.8,-,N/A,,Clear,260,2013-04-06 01:53:00
7:53 PM,55.9,48.9,77,30.14,10.0,West,12.7,-,N/A,,Clear,270,2013-04-06 02:53:00
8:53 PM,55.0,48.9,80,30.15,10.0,WSW,9.2,-,N/A,,Clear,250,2013-04-06 03:53:00
9:21 PM,53.6,48.2,82,30.17,10.0,West,4.6,-,N/A,,Mostly Cloudy,280,2013-04-06 04:21:00
9:53 PM,55.0,48.9,80,30.17,10.0,WSW,4.6,-,N/A,,Overcast,250,2013-04-06 04:53:00
10:53 PM,54.0,50.0,86,30.18,10.0,WNW,10.4,-,N/A,,Overcast,290,2013-04-06 05:53:00
11:53 PM,54.0,48.9,83,30.17,10.0,West,9.2,-,N/A,,Mostly Cloudy,270,2013-04-06 06:53:00